CZ-3B DEB, 42460

Orbit data source: Space-Track

CZ-3B DEB, 42460 is space debris in HEO originally from a launch on Sat, 04 Sep 2010 UTC launched from the Xichang Space Center, China (XSC). Debris objects in space refer to the collection of defunct objects orbiting the Earth. Examples of debris include non-operational satellites, rocket bodies, and fragments generated from explosions, collisions, or faulty payload assembly.

Loading next visibility...
Identifier
42460, 2010-042AB
Orbit
HEO
Country
Flag of CNCN / PRC
Related business
Manufacturer
CALT
Mission
Spacecraft
Bus & Motor
Unknown
Mass
Unknown
Launch date (UTC)
2010-09-04 (16 years ago)
Launch vehicle
Unknown
Launch site
Xichang Space Center, China (XSC)
Object type
Payload
Rocket body
Debris
Shape & HBR
Unknown shape, 0.2 m
Radar Cross Section
Medium (>0.1 m² and <1 m²)

Expand to show TLE details & history
Last TLE update: 1 day ago

TLE from 1 day ago
0 CZ-3B DEB
1 42460U 10042AB  26253.86648815  .00000709  00000-0  42539-2 0  9998
2 42460  30.2322  77.1921 7523199 139.3529 312.4099  1.90320726  3567
Epoch: 2026-09-10T20:47Z
TLE epoch observation values (Epoch: 2026-09-10T20:47:44.576Z)
Latitude
-0.00004°
Longitude
135.46247°
Altitude
21,315.326 km
Speed
3.781 km/s
True Right ascension
05h 09m 11s
True Declination
0° 00' 00"
Sunlit
Object was in daylight at epoch
Visualization orbit readout
Latitude
Unknown
Longitude
Unknown
Altitude
Unknown
Speed
Unknown
Apparent Right ascension
Unknown
Apparent Declination
Unknown
Sunlit
N/A
Visualization observer readout
Local Sidereal Time
20:29:33
Azimuth
Unknown
Elevation
Unknown
Doppler factor
Unknown
Orbital elements
Apogee altitude
41,825.474 km
Perigee altitude
435.16 km
Semi-major axis
27,508.454 km
Eccentricity
0.75232
Inclination
30.2322°
RAAN
77.1921°
Arg. of periapsis
139.3529°
True anomaly
220.75462°
Mean anomaly
312.4099°
Eccentric anomaly
269.30829°
Mean motion
0.47571 °/min
Orbital period
756.76 mins
BSTAR
0.0042539
Loading maneuver chart data...
Computing Atmospheric mass density...
Loading historical data...
Loading historical data...
Loading historical data...
Loading historical data...
Loading historical data...
Loading historical data...
Loading historical data...

Documentation

Showing up to 5 results
|